Location: Faicchio
(41.2833°N, 14.4833°E)
Time: 07:19:14
(UTC+00:00)

SJ 16-02 - Pass Details

Date: 15 June 2025
Orbit: 588 x 596 km, 75.0° (Epoch: 17 July)

Event Time Altitude Azimuth Distance (km) Brightness Sun altitude
Exits shadow 00:15:29 20° 284° (WNW) 1,390 3.1 -23.2°
Maximum altitude 00:16:13 21° 298° (WNW) 1,357 3.2 -23.2°
Drops below altitude 10° 00:19:31 10° 348° (NNW) 1,940 4.7 -23.0°
Sets 00:22:13 0° 5° (N) 2,846 6.1 -22.8°
